Weather History for Fryeburg, ME

Change the Weather History Date:

Saturday, October 2, 2010

  Actual Average Record
Temperature  
Mean Temperature 48 °F -  
Max Temperature 63 °F 62 °F 81 °F (2002)
Min Temperature 33 °F 35 °F 28 °F (1997)
Degree Days  
Heating Degree Days 18    
Moisture  
Dew Point 40 °F    
Average Humidity 86    
Maximum Humidity 100    
Minimum Humidity 42    
Precipitation  
Precipitation 0.01 in - - ()
Sea Level Pressure  
Sea Level Pressure 29.94 in    
Wind  
Wind Speed 2 mph (NW)    
Max Wind Speed 9 mph    
Max Gust Speed -    
Visibility 6 miles    
Events Fog    
Averages and records for this station are not official NWS values.
T = Trace of Precipitation, MM = Missing Value Source: NWS Daily Summary

Daily Weather History Graph

Daily Weather History Graph

Search for Another Location

Airport:

Trip Planner

Search our weather history database for the weather conditions in past years. The results will help you decide how hot, cold, wet, or windy it might be!

Date:

Astronomy

Oct. 02, 2010 Rise Set
Actual Time 6:42 AM EDT 6:22 PM EDT
Civil Twilight 6:13 AM EDT 6:51 PM EDT
Nautical Twilight 5:40 AM EDT 7:25 PM EDT
Astronomical Twilight 5:06 AM EDT 7:58 PM EDT
Moon 12:10 AM EDT (10/2) 3:19 PM EDT (10/2)
Length of Visible Light 12h 37m
Length of Day
11h 40m
Waning Crescent, 33% of the Moon is Illuminated
Oct 2
Waning Crescent
Oct 7
New
Oct 14
First Quarter
Oct 22
Full
Oct 30
Last Quarter

Hourly Weather History & Observations

Time (EDT) Temp. Windchill Dew Point Humidity Pressure Visibility Wind Dir Wind Speed Gust Speed Precip Events Conditions
12:54 AM 55.0 °F - 51.1 °F 86% 29.63 in 10.0 mi NNW 4.6 mph - N/A   Scattered Clouds
1:54 AM 55.0 °F - 48.9 °F 80% 29.66 in 10.0 mi NNW 5.8 mph - 0.01 in   Clear
2:54 AM 50.0 °F - 50.0 °F 100% 29.69 in 10.0 mi Calm Calm - N/A   Clear
3:39 AM 46.4 °F - 46.4 °F 100% 29.71 in 2.0 mi Calm Calm - N/A   Clear
3:54 AM 46.0 °F 44.8 °F 46.0 °F 100% 29.72 in 8.0 mi WNW 3.5 mph - N/A   Clear
4:35 AM 44.6 °F 43.1 °F 44.6 °F 100% 29.72 in 2.5 mi NW 3.5 mph - N/A   Clear
4:43 AM 44.6 °F 43.1 °F 44.6 °F 100% 29.72 in 10.0 mi NNW 3.5 mph - N/A   Clear
4:54 AM 44.1 °F - 44.1 °F 100% 29.73 in 10.0 mi Calm Calm - N/A   Clear
5:54 AM 42.1 °F 40.2 °F 42.1 °F 100% 29.76 in 2.5 mi West 3.5 mph - N/A   Clear
6:07 AM 42.8 °F 41.1 °F 42.8 °F 100% 29.75 in 4.0 mi WNW 3.5 mph - N/A   Clear
6:54 AM 48.0 °F - 43.0 °F 83% 29.78 in 10.0 mi West 3.5 mph - N/A   Clear
7:54 AM 48.9 °F - 46.0 °F 90% 29.80 in 10.0 mi Calm Calm - N/A   Clear
8:54 AM 54.0 °F - 43.0 °F 66% 29.83 in 10.0 mi WNW 9.2 mph - N/A   Clear
9:54 AM 55.9 °F - 41.0 °F 57% 29.86 in 10.0 mi Calm Calm - N/A   Clear
10:54 AM 57.9 °F - 41.0 °F 53% 29.88 in 10.0 mi Variable 4.6 mph - N/A   Clear
11:54 AM 59.0 °F - 39.9 °F 49% 29.89 in 10.0 mi WNW 6.9 mph - N/A   Clear
12:54 PM 61.0 °F - 41.0 °F 48% 29.89 in 10.0 mi Variable 5.8 mph - N/A   Clear
1:54 PM 62.1 °F - 39.9 °F 44% 29.89 in 10.0 mi Variable 4.6 mph - N/A   Clear
2:54 PM 62.1 °F - 39.0 °F 43% 29.91 in 10.0 mi Calm Calm - N/A   Clear
3:54 PM 62.1 °F - 39.9 °F 44% 29.94 in 10.0 mi West 4.6 mph - N/A   Clear
4:54 PM 61.0 °F - 37.9 °F 42% 29.96 in 10.0 mi Calm Calm - N/A   Clear
5:54 PM 54.0 °F - 37.9 °F 55% 30.00 in 10.0 mi NNW 4.6 mph - N/A   Clear
6:54 PM 46.0 °F - 41.0 °F 83% 30.03 in 10.0 mi Calm Calm - N/A   Clear
7:54 PM 42.1 °F - 41.0 °F 96% 30.05 in 10.0 mi Calm Calm - N/A   Clear
8:54 PM 39.0 °F - 39.0 °F 100% 30.08 in 10.0 mi Calm Calm - N/A   Clear
9:54 PM 37.9 °F - 37.9 °F 100% 30.09 in 10.0 mi Calm Calm - N/A   Clear
10:03 PM 37.4 °F - 37.4 °F 100% 30.08 in 1.2 mi Calm Calm - N/A   Clear
10:13 PM 37.4 °F - 37.4 °F 100% 30.08 in 3.0 mi Calm Calm - N/A   Clear
10:17 PM 37.4 °F - 37.4 °F 100% 30.08 in 1.5 mi Calm Calm - N/A   Clear
10:22 PM 35.6 °F - 35.6 °F 100% 30.09 in 0.2 mi Calm Calm - N/A Fog Fog
10:33 PM 35.6 °F - 35.6 °F 100% 30.09 in 0.8 mi Calm Calm - N/A   Clear
10:39 PM 35.6 °F - 35.6 °F 100% 30.09 in 1.5 mi Calm Calm - N/A   Clear
10:41 PM 35.6 °F - 35.6 °F 100% 30.09 in 4.0 mi Calm Calm - N/A   Clear
10:54 PM 36.0 °F - 36.0 °F 100% 30.11 in 1.2 mi Calm Calm - N/A   Clear
11:01 PM 35.6 °F - 35.6 °F 100% 30.10 in 0.5 mi Calm Calm - N/A Fog Fog
11:07 PM 35.6 °F - 35.6 °F 100% 30.10 in 1.5 mi Calm Calm - N/A   Clear
11:13 PM 35.6 °F - 35.6 °F 100% 30.10 in 3.0 mi Calm Calm - N/A   Clear
11:33 PM 33.8 °F - 33.8 °F 100% 30.11 in 1.8 mi Calm Calm - N/A   Clear
11:42 PM 33.8 °F - 33.8 °F 100% 30.11 in 5.0 mi Calm Calm - N/A   Clear
11:49 PM 35.6 °F - 33.8 °F 93% 30.11 in 1.8 mi Calm Calm - N/A   Scattered Clouds
11:50 PM 35.6 °F - 35.6 °F 100% 30.11 in 1.0 mi Calm Calm - N/A   Mist
11:54 PM 35.1 °F - 35.1 °F 100% 30.12 in 0.5 mi Calm Calm - N/A Fog Fog